| time (UTC) | temp F | wind direction | speed MPH | gust MPH | rain 1hr in | rain 24hr in | rain mn in | humidity % | barometer mb |
| 20260506051145 | 69 | 223 | 0.0 | 1.0 | 0.00 | 0.00 | 0.00 | 55 | 1014.8 |
| 20260506050643 | 69 | 232 | 1.0 | 6.0 | 0.00 | 0.00 | 0.00 | 54 | 1015.2 |
| 20260506050140 | 69 | 15 | 0.0 | 3.0 | 0.00 | 0.00 | 0.00 | 54 | 1015.2 |
| 20260506045133 | 69 | 202 | 0.0 | 2.0 | 0.00 | 0.00 | 0.00 | 54 | 1015.2 |
| 20260506044631 | 69 | 235 | 0.0 | 3.0 | 0.00 | 0.00 | 0.00 | 54 | 1015.7 |
| 20260506044128 | 69 | 214 | 1.0 | 2.0 | 0.00 | 0.00 | 0.00 | 54 | 1015.8 |
| 20260506043625 | 69 | 257 | 0.0 | 2.0 | 0.00 | 0.00 | 0.00 | 54 | 1015.5 |
| 20260506043123 | 69 | 225 | 0.0 | 2.0 | 0.00 | 0.00 | 0.00 | 53 | 1015.5 |
| 20260506042622 | 69 | 229 | 1.0 | 4.0 | 0.00 | 0.00 | 0.00 | 53 | 1015.3 |
| 20260506042120 | 69 | 28 | 0.0 | 2.0 | 0.00 | 0.00 | 0.00 | 54 | 1015.3 |
| 20260506041618 | 69 | 216 | 0.0 | 2.0 | 0.00 | 0.00 | 0.00 | 54 | 1015.3 |
| 20260506041114 | 68 | 260 | 0.0 | 2.0 | 0.00 | 0.00 | 0.00 | 54 | 1015.4 |
| 20260506040612 | 69 | 250 | 0.0 | 0.0 | 0.00 | 0.00 | 0.00 | 55 | 1015.2 |
| 20260506040109 | 68 | 206 | 2.0 | 3.0 | 0.00 | 0.00 | 0.00 | 54 | 1015.3 |
| 20260506035606 | 68 | 204 | 0.0 | 2.0 | 0.00 | 0.00 | 0.00 | 55 | 1015.2 |
| 20260506035102 | 68 | 198 | 1.0 | 6.0 | 0.00 | 0.00 | 0.00 | 55 | 1015.2 |
| 20260506034600 | 68 | 192 | 0.0 | 3.0 | 0.00 | 0.00 | 0.00 | 57 | 1015.5 |
| 20260506034056 | 68 | 204 | 0.0 | 1.0 | 0.00 | 0.00 | 0.00 | 57 | 1015.4 |
| 20260506033554 | 68 | 219 | 0.0 | 3.0 | 0.00 | 0.00 | 0.00 | 57 | 1015.5 |
| 20260506033050 | 68 | 204 | 0.0 | 2.0 | 0.00 | 0.00 | 0.00 | 57 | 1015.4 |
| 20260506032548 | 68 | 227 | 0.0 | 0.0 | 0.00 | 0.00 | 0.00 | 57 | 1015.6 |
| 20260506032044 | 69 | 214 | 0.0 | 4.0 | 0.00 | 0.00 | 0.00 | 56 | 1015.9 |
| 20260506031542 | 68 | 220 | 0.0 | 4.0 | 0.00 | 0.00 | 0.00 | 56 | 1015.8 |
| 20260506031039 | 68 | 189 | 2.0 | 2.0 | 0.00 | 0.00 | 0.00 | 56 | 1015.8 |
| 20260506030537 | 68 | 223 | 0.0 | 1.0 | 0.00 | 0.00 | 0.00 | 56 | 1015.8 |
| 20260506030034 | 68 | 231 | 0.0 | 1.0 | 0.00 | 0.00 | 0.00 | 55 | 1015.9 |
| 20260506025531 | 68 | 222 | 0.0 | 3.0 | 0.00 | 0.00 | 0.00 | 55 | 1015.6 |
| 20260506025027 | 67 | 207 | 1.0 | 2.0 | 0.00 | 0.00 | 0.00 | 57 | 1015.6 |
| 20260506024524 | 67 | 218 | 0.0 | 0.0 | 0.00 | 0.00 | 0.00 | 58 | 1015.7 |
| 20260506024020 | 67 | 206 | 0.0 | 0.0 | 0.00 | 0.00 | 0.00 | 57 | 1015.6 |
| 20260506023516 | 67 | 225 | 0.0 | 1.0 | 0.00 | 0.00 | 0.00 | 57 | 1015.6 |
| 20260506023015 | 67 | 212 | 0.0 | 0.0 | 0.00 | 0.00 | 0.00 | 57 | 1015.5 |
| 20260506022511 | 68 | 232 | 0.0 | 0.0 | 0.00 | 0.00 | 0.00 | 56 | 1015.6 |
| 20260506022009 | 67 | 231 | 0.0 | 0.0 | 0.00 | 0.00 | 0.00 | 57 | 1015.4 |
| 20260506021506 | 67 | 223 | 0.0 | 0.0 | 0.00 | 0.00 | 0.00 | 57 | 1015.3 |
| 20260506021003 | 67 | 224 | 0.0 | 0.0 | 0.00 | 0.00 | 0.00 | 58 | 1015.2 |
| 20260506020501 | 68 | 218 | 0.0 | 0.0 | 0.00 | 0.00 | 0.00 | 57 | 1015.5 |
| 20260506015957 | 69 | 218 | 0.0 | 0.0 | 0.00 | 0.00 | 0.00 | 55 | 1015.6 |
| 20260506015455 | 69 | 220 | 0.0 | 1.0 | 0.00 | 0.00 | 0.00 | 54 | 1015.5 |
| 20260506014952 | 69 | 224 | 1.0 | 2.0 | 0.00 | 0.00 | 0.00 | 55 | 1015.4 |
| 20260506014449 | 69 | 220 | 0.0 | 0.0 | 0.00 | 0.00 | 0.00 | 55 | 1015.4 |
| 20260506013945 | 69 | 192 | 0.0 | 1.0 | 0.00 | 0.00 | 0.00 | 55 | 1015.4 |
| 20260506013443 | 69 | 199 | 1.0 | 2.0 | 0.00 | 0.00 | 0.00 | 55 | 1015.4 |
| 20260506012939 | 69 | 225 | 0.0 | 0.0 | 0.00 | 0.00 | 0.00 | 55 | 1015.3 |
| 20260506012436 | 69 | 223 | 0.0 | 1.0 | 0.00 | 0.00 | 0.00 | 55 | 1014.9 |
| 20260506011933 | 69 | 222 | 0.0 | 1.0 | 0.00 | 0.00 | 0.00 | 55 | 1015.0 |
| 20260506011431 | 69 | 219 | 0.0 | 2.0 | 0.00 | 0.00 | 0.00 | 55 | 1015.1 |
| 20260506010927 | 70 | 225 | 0.0 | 0.0 | 0.00 | 0.00 | 0.00 | 55 | 1015.1 |
| 20260506010426 | 70 | 242 | 0.0 | 3.0 | 0.00 | 0.00 | 0.00 | 54 | 1015.0 |
| 20260506005922 | 70 | 232 | 0.0 | 1.0 | 0.00 | 0.00 | 0.00 | 54 | 1015.0 |
| 20260506005420 | 70 | 213 | 0.0 | 3.0 | 0.00 | 0.00 | 0.00 | 55 | 1014.9 |
| 20260506004915 | 69 | 222 | 0.0 | 0.0 | 0.00 | 0.00 | 0.00 | 56 | 1014.8 |
| 20260506004413 | 70 | 206 | 0.0 | 0.0 | 0.00 | 0.00 | 0.00 | 55 | 1015.0 |
| 20260506003909 | 70 | 205 | 0.0 | 0.0 | 0.00 | 0.00 | 0.00 | 54 | 1015.1 |
| 20260506003405 | 71 | 205 | 0.0 | 0.0 | 0.00 | 0.00 | 0.00 | 53 | 1014.9 |
| 20260506002902 | 71 | 206 | 0.0 | 0.0 | 0.00 | 0.00 | 0.00 | 53 | 1014.9 |
| 20260506002358 | 72 | 210 | 0.0 | 0.0 | 0.00 | 0.00 | 0.00 | 52 | 1015.0 |
| 20260506001853 | 72 | 201 | 0.0 | 2.0 | 0.00 | 0.00 | 0.00 | 51 | 1015.1 |
| 20260506001351 | 73 | 245 | 0.0 | 1.0 | 0.00 | 0.00 | 0.00 | 50 | 1015.0 |
| 20260506000848 | 73 | 186 | 0.0 | 0.0 | 0.00 | 0.00 | 0.00 | 50 | 1014.8 |
| 20260506000346 | 73 | 196 | 0.0 | 0.0 | 0.00 | 0.00 | 0.00 | 50 | 1014.8 |
| 20260505235842 | 75 | 195 | 0.0 | 1.0 | 0.00 | 0.00 | 0.00 | 48 | 1014.8 |
| 20260505235340 | 76 | 176 | 0.0 | 0.0 | 0.00 | 0.00 | 0.00 | 47 | 1014.8 |
| 20260505234836 | 77 | 233 | 0.0 | 0.0 | 0.00 | 0.00 | 0.00 | 45 | 1014.8 |
| 20260505234335 | 77 | 162 | 2.0 | 2.0 | 0.00 | 0.00 | 0.00 | 44 | 1015.1 |
| 20260505233831 | 76 | 255 | 0.0 | 2.0 | 0.00 | 0.00 | 0.00 | 46 | 1014.9 |
| 20260505233329 | 76 | 208 | 0.0 | 0.0 | 0.00 | 0.00 | 0.00 | 45 | 1014.9 |
| 20260505232826 | 76 | 210 | 0.0 | 1.0 | 0.00 | 0.00 | 0.00 | 46 | 1014.8 |
| 20260505232324 | 75 | 359 | 0.0 | 3.0 | 0.00 | 0.00 | 0.00 | 45 | 1015.1 |
| 20260505231820 | 76 | 223 | 1.0 | 2.0 | 0.00 | 0.00 | 0.00 | 45 | 1014.9 |
| 20260505231318 | 76 | 224 | 1.0 | 3.0 | 0.00 | 0.00 | 0.00 | 45 | 1015.1 |
| 20260505230816 | 76 | 230 | 1.0 | 4.0 | 0.00 | 0.00 | 0.00 | 44 | 1015.1 |
| 20260505230313 | 75 | 204 | 2.0 | 7.0 | 0.00 | 0.00 | 0.00 | 44 | 1014.8 |
| 20260505225809 | 75 | 240 | 0.0 | 1.0 | 0.00 | 0.00 | 0.00 | 47 | 1015.0 |
| 20260505225307 | 76 | 224 | 1.0 | 1.0 | 0.00 | 0.00 | 0.00 | 46 | 1015.1 |
| 20260505224802 | 77 | 181 | 2.0 | 4.0 | 0.00 | 0.00 | 0.00 | 44 | 1014.9 |
| 20260505224300 | 78 | 51 | 1.0 | 4.0 | 0.00 | 0.00 | 0.00 | 44 | 1015.0 |
| 20260505223757 | 80 | 48 | 0.0 | 3.0 | 0.00 | 0.00 | 0.00 | 42 | 1015.2 |
| 20260505223254 | 79 | 220 | 0.0 | 1.0 | 0.00 | 0.00 | 0.00 | 43 | 1014.9 |
| 20260505222749 | 77 | 229 | 0.0 | 4.0 | 0.00 | 0.00 | 0.00 | 43 | 1014.6 |
| 20260505222246 | 78 | 231 | 0.0 | 2.0 | 0.00 | 0.00 | 0.00 | 45 | 1014.6 |
| 20260505221743 | 78 | 278 | 0.0 | 3.0 | 0.00 | 0.00 | 0.00 | 44 | 1014.9 |
| 20260505221240 | 79 | 183 | 0.0 | 2.0 | 0.00 | 0.00 | 0.00 | 43 | 1014.9 |
| 20260505220736 | 80 | 164 | 4.0 | 9.0 | 0.00 | 0.00 | 0.00 | 40 | 1014.8 |
| 20260505220234 | 80 | 258 | 0.0 | 4.0 | 0.00 | 0.00 | 0.00 | 42 | 1015.1 |
| 20260505215732 | 80 | 167 | 0.0 | 2.0 | 0.00 | 0.00 | 0.00 | 41 | 1014.8 |
| 20260505215229 | 80 | 209 | 2.0 | 3.0 | 0.00 | 0.00 | 0.00 | 39 | 1015.1 |
| 20260505214727 | 81 | 55 | 0.0 | 1.0 | 0.00 | 0.00 | 0.00 | 40 | 1015.1 |
| 20260505214224 | 81 | 182 | 2.0 | 3.0 | 0.00 | 0.00 | 0.00 | 39 | 1015.0 |
| 20260505213721 | 80 | 12 | 2.0 | 4.0 | 0.00 | 0.00 | 0.00 | 40 | 1015.0 |
| 20260505213218 | 80 | 203 | 1.0 | 3.0 | 0.00 | 0.00 | 0.00 | 38 | 1015.0 |
| 20260505212713 | 81 | 209 | 3.0 | 10.0 | 0.00 | 0.00 | 0.00 | 38 | 1015.0 |
| 20260505212206 | 80 | 217 | 1.0 | 4.0 | 0.00 | 0.00 | 0.00 | 42 | 1015.1 |
| 20260505211702 | 81 | 204 | 1.0 | 3.0 | 0.00 | 0.00 | 0.00 | 39 | 1015.2 |
| 20260505211200 | 82 | 183 | 2.0 | 6.0 | 0.00 | 0.00 | 0.00 | 38 | 1015.2 |
| 20260505210656 | 81 | 190 | 0.0 | 3.0 | 0.00 | 0.00 | 0.00 | 40 | 1015.1 |
| 20260505210153 | 80 | 222 | 2.0 | 3.0 | 0.00 | 0.00 | 0.00 | 39 | 1015.2 |
| 20260505205651 | 80 | 156 | 4.0 | 7.0 | 0.00 | 0.00 | 0.00 | 37 | 1015.4 |
| 20260505205149 | 81 | 215 | 2.0 | 7.0 | 0.00 | 0.00 | 0.00 | 39 | 1015.2 |
| 20260505204645 | 80 | 222 | 0.0 | 8.0 | 0.00 | 0.00 | 0.00 | 43 | 1015.2 |
| 20260505204143 | 81 | 99 | 2.0 | 3.0 | 0.00 | 0.00 | 0.00 | 39 | 1015.4 |
| 20260505203640 | 81 | 143 | 0.0 | 2.0 | 0.00 | 0.00 | 0.00 | 41 | 1015.5 |
| 20260505203137 | 81 | 239 | 1.0 | 7.0 | 0.00 | 0.00 | 0.00 | 40 | 1015.8 |
| 20260505202632 | 81 | 248 | 2.0 | 3.0 | 0.00 | 0.00 | 0.00 | 41 | 1015.7 |
| 20260505202128 | 82 | 262 | 0.0 | 7.0 | 0.00 | 0.00 | 0.00 | 39 | 1015.6 |
| 20260505201625 | 83 | 302 | 1.0 | 2.0 | 0.00 | 0.00 | 0.00 | 38 | 1015.7 |
| 20260505201117 | 82 | 347 | 1.0 | 3.0 | 0.00 | 0.00 | 0.00 | 39 | 1015.8 |
| 20260505200615 | 80 | 261 | 2.0 | 6.0 | 0.00 | 0.00 | 0.00 | 40 | 1015.7 |
| 20260505200111 | 78 | 176 | 1.0 | 3.0 | 0.00 | 0.00 | 0.00 | 43 | 1016.0 |
| 20260505195602 | 78 | 233 | 2.0 | 3.0 | 0.00 | 0.00 | 0.00 | 42 | 1015.9 |
| 20260505195100 | 79 | 218 | 1.0 | 6.0 | 0.00 | 0.00 | 0.00 | 43 | 1016.0 |
| 20260505194556 | 80 | 179 | 1.0 | 4.0 | 0.00 | 0.00 | 0.00 | 41 | 1015.8 |
| 20260505194052 | 79 | 206 | 0.0 | 3.0 | 0.00 | 0.00 | 0.00 | 43 | 1016.4 |
| 20260505193549 | 80 | 170 | 1.0 | 3.0 | 0.00 | 0.00 | 0.00 | 41 | 1016.2 |
| 20260505193046 | 81 | 201 | 3.0 | 6.0 | 0.00 | 0.00 | 0.00 | 39 | 1016.1 |
| 20260505192544 | 80 | 130 | 4.0 | 6.0 | 0.00 | 0.00 | 0.00 | 37 | 1016.1 |
| 20260505192041 | 81 | 218 | 1.0 | 7.0 | 0.00 | 0.00 | 0.00 | 37 | 1016.1 |
| 20260505191539 | 81 | 224 | 2.0 | 3.0 | 0.00 | 0.00 | 0.00 | 36 | 1016.4 |
| 20260505191037 | 81 | 186 | 3.0 | 4.0 | 0.00 | 0.00 | 0.00 | 38 | 1016.4 |
| 20260505190532 | 80 | 194 | 1.0 | 3.0 | 0.00 | 0.00 | 0.00 | 39 | 1016.2 |
| 20260505190029 | 82 | 243 | 1.0 | 4.0 | 0.00 | 0.00 | 0.00 | 40 | 1016.4 |
| 20260505185526 | 80 | 254 | 2.0 | 6.0 | 0.00 | 0.00 | 0.00 | 40 | 1016.3 |
| 20260505185022 | 81 | 157 | 6.0 | 10.0 | 0.00 | 0.00 | 0.00 | 38 | 1016.5 |
| 20260505184519 | 80 | 234 | 3.0 | 4.0 | 0.00 | 0.00 | 0.00 | 38 | 1016.6 |
| 20260505184015 | 81 | 281 | 2.0 | 9.0 | 0.00 | 0.00 | 0.00 | 36 | 1016.7 |
| 20260505183507 | 81 | 55 | 1.0 | 2.0 | 0.00 | 0.00 | 0.00 | 39 | 1016.8 |
| 20260505183004 | 81 | 168 | 3.0 | 4.0 | 0.00 | 0.00 | 0.00 | 38 | 1016.8 |
| 20260505182500 | 81 | 219 | 3.0 | 9.0 | 0.00 | 0.00 | 0.00 | 40 | 1017.1 |
| 20260505181956 | 81 | 230 | 0.0 | 4.0 | 0.00 | 0.00 | 0.00 | 39 | 1017.3 |
| 20260505181453 | 81 | 95 | 2.0 | 4.0 | 0.00 | 0.00 | 0.00 | 40 | 1016.9 |
| 20260505180950 | 81 | 213 | 3.0 | 6.0 | 0.00 | 0.00 | 0.00 | 38 | 1017.3 |
| 20260505180446 | 81 | 261 | 3.0 | 4.0 | 0.00 | 0.00 | 0.00 | 38 | 1017.3 |
| 20260505175943 | 80 | 246 | 3.0 | 7.0 | 0.00 | 0.00 | 0.00 | 39 | 1017.3 |
| 20260505175439 | 81 | 191 | 1.0 | 2.0 | 0.00 | 0.00 | 0.00 | 40 | 1017.3 |
| 20260505174936 | 80 | 250 | 1.0 | 4.0 | 0.00 | 0.00 | 0.00 | 41 | 1017.4 |
| 20260505174433 | 80 | 187 | 2.0 | 8.0 | 0.00 | 0.00 | 0.00 | 42 | 1017.5 |
| 20260505173929 | 80 | 246 | 2.0 | 7.0 | 0.00 | 0.00 | 0.00 | 41 | 1017.6 |
| 20260505173425 | 78 | 209 | 0.0 | 2.0 | 0.00 | 0.00 | 0.00 | 41 | 1017.8 |
| 20260505172923 | 81 | 176 | 6.0 | 13.0 | 0.00 | 0.00 | 0.00 | 37 | 1017.5 |
| 20260505172421 | 81 | 43 | 5.0 | 9.0 | 0.00 | 0.00 | 0.00 | 39 | 1017.7 |
| 20260505171920 | 80 | 83 | 1.0 | 6.0 | 0.00 | 0.00 | 0.00 | 39 | 1017.5 |
| 20260505171412 | 80 | 217 | 0.0 | 3.0 | 0.00 | 0.00 | 0.00 | 41 | 1017.4 |
| 20260505170909 | 80 | 194 | 3.0 | 6.0 | 0.00 | 0.00 | 0.00 | 37 | 1017.6 |
| 20260505170405 | 80 | 166 | 0.0 | 3.0 | 0.00 | 0.00 | 0.00 | 39 | 1017.6 |
| 20260505165900 | 81 | 253 | 2.0 | 6.0 | 0.00 | 0.00 | 0.00 | 40 | 1017.7 |
| 20260505165350 | 81 | 233 | 2.0 | 6.0 | 0.00 | 0.00 | 0.00 | 38 | 1017.8 |
| 20260505164846 | 81 | 39 | 1.0 | 3.0 | 0.00 | 0.00 | 0.00 | 39 | 1017.6 |
| 20260505164343 | 81 | 220 | 1.0 | 4.0 | 0.00 | 0.00 | 0.00 | 42 | 1017.9 |
| 20260505163842 | 78 | 192 | 0.0 | 7.0 | 0.00 | 0.00 | 0.00 | 41 | 1017.9 |
| 20260505163340 | 78 | 58 | 2.0 | 6.0 | 0.00 | 0.00 | 0.00 | 43 | 1017.6 |
| 20260505162838 | 78 | 208 | 0.0 | 7.0 | 0.00 | 0.00 | 0.00 | 45 | 1018.0 |
| 20260505162334 | 79 | 351 | 2.0 | 6.0 | 0.00 | 0.00 | 0.00 | 43 | 1017.9 |
| 20260505161831 | 76 | 197 | 4.0 | 6.0 | 0.00 | 0.00 | 0.00 | 42 | 1017.8 |
| 20260505161328 | 76 | 175 | 0.0 | 0.0 | 0.00 | 0.00 | 0.00 | 46 | 1018.0 |
| 20260505160825 | 79 | 199 | 1.0 | 4.0 | 0.00 | 0.00 | 0.00 | 43 | 1018.0 |
| 20260505160323 | 78 | 194 | 0.0 | 4.0 | 0.00 | 0.00 | 0.00 | 44 | 1017.9 |
| 20260505153301 | 76 | 223 | 0.0 | 2.0 | 0.00 | 0.00 | 0.00 | 51 | 1017.9 |
| 20260505152759 | 77 | 207 | 0.0 | 2.0 | 0.00 | 0.00 | 0.00 | 49 | 1017.9 |
| 20260505152255 | 75 | 298 | 0.0 | 3.0 | 0.00 | 0.00 | 0.00 | 53 | 1018.3 |
| 20260505151749 | 74 | 35 | 2.0 | 2.0 | 0.00 | 0.00 | 0.00 | 53 | 1018.4 |
| 20260505151247 | 74 | 73 | 2.0 | 4.0 | 0.00 | 0.00 | 0.00 | 53 | 1018.4 |
| 20260505150744 | 73 | 187 | 0.0 | 4.0 | 0.00 | 0.00 | 0.00 | 57 | 1018.1 |
| 20260505150241 | 74 | 189 | 3.0 | 3.0 | 0.00 | 0.00 | 0.00 | 52 | 1018.1 |
| 20260505140206 | 69 | 100 | 0.0 | 2.0 | 0.00 | 0.00 | 0.00 | 60 | 1018.3 |
| 20260505130130 | 60 | 41 | 1.0 | 2.0 | 0.00 | 0.00 | 0.00 | 73 | 1017.6 |
| 20260505124619 | 61 | 90 | 0.0 | 1.0 | 0.00 | 0.00 | 0.00 | 72 | 1017.6 |
| 20260505124116 | 60 | 90 | 0.0 | 1.0 | 0.00 | 0.00 | 0.00 | 71 | 1017.8 |
| 20260505123612 | 59 | 90 | 1.0 | 2.0 | 0.00 | 0.00 | 0.00 | 73 | 1017.6 |
| 20260505123108 | 61 | 26 | 1.0 | 2.0 | 0.00 | 0.00 | 0.00 | 69 | 1017.5 |
| 20260505122605 | 60 | 317 | 0.0 | 1.0 | 0.00 | 0.00 | 0.00 | 70 | 1017.5 |
| 20260505122102 | 58 | 240 | 1.0 | 1.0 | 0.00 | 0.00 | 0.00 | 75 | 1017.5 |
| 20260505121553 | 57 | 248 | 1.0 | 2.0 | 0.00 | 0.00 | 0.00 | 77 | 1017.5 |
| 20260505121050 | 57 | 252 | 2.0 | 2.0 | 0.00 | 0.00 | 0.00 | 77 | 1017.5 |
| 20260505120546 | 57 | 246 | 1.0 | 2.0 | 0.00 | 0.00 | 0.00 | 77 | 1017.1 |
| 20260505120042 | 57 | 235 | 0.0 | 0.0 | 0.00 | 0.00 | 0.00 | 78 | 1017.1 |
| 20260505115536 | 56 | 235 | 0.0 | 0.0 | 0.00 | 0.00 | 0.00 | 78 | 1017.3 |
| 20260505115034 | 55 | 228 | 0.0 | 1.0 | 0.00 | 0.00 | 0.00 | 78 | 1017.1 |
| 20260505114531 | 55 | 228 | 0.0 | 0.0 | 0.00 | 0.00 | 0.00 | 79 | 1017.1 |
| 20260505114027 | 54 | 228 | 0.0 | 1.0 | 0.00 | 0.00 | 0.00 | 80 | 1017.0 |
| 20260505113524 | 54 | 228 | 0.0 | 1.0 | 0.00 | 0.00 | 0.00 | 80 | 1016.9 |
| 20260505113020 | 54 | 228 | 0.0 | 0.0 | 0.00 | 0.00 | 0.00 | 78 | 1016.8 |
| 20260505112516 | 54 | 228 | 0.0 | 0.0 | 0.00 | 0.00 | 0.00 | 78 | 1016.6 |
| 20260505112014 | 53 | 229 | 0.0 | 0.0 | 0.00 | 0.00 | 0.00 | 79 | 1016.7 |
| 20260505111508 | 52 | 229 | 0.0 | 0.0 | 0.00 | 0.00 | 0.00 | 83 | 1017.0 |
| 20260505111005 | 50 | 229 | 0.0 | 0.0 | 0.00 | 0.00 | 0.00 | 83 | 1016.6 |
| 20260505110502 | 50 | 229 | 0.0 | 0.0 | 0.00 | 0.00 | 0.00 | 85 | 1016.8 |
| 20260505101933 | 50 | 229 | 0.0 | 0.0 | 0.00 | 0.00 | 0.00 | 84 | 1016.6 |
| 20260505101427 | 50 | 229 | 0.0 | 0.0 | 0.00 | 0.00 | 0.00 | 85 | 1016.7 |
| 20260505100923 | 50 | 229 | 0.0 | 0.0 | 0.00 | 0.00 | 0.00 | 85 | 1016.8 |
| 20260505100420 | 50 | 215 | 0.0 | 0.0 | 0.00 | 0.00 | 0.00 | 84 | 1016.6 |
| 20260505095915 | 50 | 223 | 0.0 | 0.0 | 0.00 | 0.00 | 0.00 | 83 | 1016.6 |
| 20260505095413 | 51 | 223 | 0.0 | 0.0 | 0.00 | 0.00 | 0.00 | 82 | 1016.3 |
| 20260505094909 | 52 | 216 | 0.0 | 0.0 | 0.00 | 0.00 | 0.00 | 81 | 1016.6 |
| 20260505094406 | 53 | 231 | 0.0 | 2.0 | 0.00 | 0.00 | 0.00 | 77 | 1016.4 |
| 20260505093901 | 51 | 218 | 0.0 | 1.0 | 0.00 | 0.00 | 0.00 | 83 | 1016.7 |
| 20260505093359 | 51 | 217 | 0.0 | 1.0 | 0.00 | 0.00 | 0.00 | 81 | 1016.5 |
| 20260505092856 | 51 | 225 | 0.0 | 1.0 | 0.00 | 0.00 | 0.00 | 85 | 1016.7 |
| 20260505092354 | 53 | 173 | 0.0 | 1.0 | 0.00 | 0.00 | 0.00 | 83 | 1016.4 |
| 20260505091851 | 54 | 231 | 0.0 | 1.0 | 0.00 | 0.00 | 0.00 | 72 | 1016.2 |
| 20260505091349 | 54 | 231 | 0.0 | 0.0 | 0.00 | 0.00 | 0.00 | 74 | 1016.4 |
| 20260505090847 | 53 | 212 | 0.0 | 0.0 | 0.00 | 0.00 | 0.00 | 74 | 1016.5 |
| 20260505090345 | 53 | 231 | 0.0 | 0.0 | 0.00 | 0.00 | 0.00 | 75 | 1016.7 |
| 20260505085842 | 52 | 231 | 0.0 | 0.0 | 0.00 | 0.00 | 0.00 | 76 | 1016.8 |
| 20260505085340 | 52 | 214 | 0.0 | 0.0 | 0.00 | 0.00 | 0.00 | 79 | 1016.5 |
| 20260505084837 | 51 | 220 | 0.0 | 0.0 | 0.00 | 0.00 | 0.00 | 82 | 1016.4 |
| 20260505084335 | 51 | 237 | 0.0 | 0.0 | 0.00 | 0.00 | 0.00 | 85 | 1016.5 |
| 20260505083832 | 51 | 235 | 0.0 | 0.0 | 0.00 | 0.00 | 0.00 | 85 | 1016.5 |
| 20260505083330 | 51 | 235 | 0.0 | 0.0 | 0.00 | 0.00 | 0.00 | 85 | 1016.8 |
| 20260505082826 | 51 | 236 | 0.0 | 1.0 | 0.00 | 0.00 | 0.00 | 84 | 1016.7 |
| 20260505082322 | 51 | 240 | 0.0 | 0.0 | 0.00 | 0.00 | 0.00 | 83 | 1016.5 |
| 20260505081819 | 52 | 235 | 0.0 | 0.0 | 0.00 | 0.00 | 0.00 | 82 | 1016.5 |
| 20260505081316 | 52 | 233 | 0.0 | 0.0 | 0.00 | 0.00 | 0.00 | 79 | 1016.6 |
| 20260505080813 | 53 | 233 | 0.0 | 0.0 | 0.00 | 0.00 | 0.00 | 78 | 1016.7 |
| 20260505080309 | 53 | 234 | 0.0 | 0.0 | 0.00 | 0.00 | 0.00 | 78 | 1016.7 |
| 20260505075804 | 53 | 233 | 0.0 | 0.0 | 0.00 | 0.00 | 0.00 | 77 | 1016.7 |
| 20260505075304 | 53 | 233 | 0.0 | 0.0 | 0.00 | 0.00 | 0.00 | 76 | 1016.5 |
| 20260505074759 | 53 | 232 | 0.0 | 0.0 | 0.00 | 0.00 | 0.00 | 77 | 1016.6 |
| 20260505074256 | 53 | 233 | 0.0 | 0.0 | 0.00 | 0.00 | 0.00 | 77 | 1016.4 |
| 20260505073753 | 53 | 235 | 0.0 | 0.0 | 0.00 | 0.00 | 0.00 | 78 | 1016.4 |
| 20260505073251 | 53 | 232 | 0.0 | 0.0 | 0.00 | 0.00 | 0.00 | 77 | 1016.3 |
| 20260505072747 | 53 | 251 | 0.0 | 0.0 | 0.00 | 0.00 | 0.00 | 77 | 1016.5 |
| 20260505072244 | 53 | 242 | 0.0 | 1.0 | 0.00 | 0.00 | 0.00 | 77 | 1016.6 |
| 20260505071739 | 54 | 233 | 0.0 | 0.0 | 0.00 | 0.00 | 0.00 | 77 | 1016.6 |
| 20260505071236 | 54 | 230 | 0.0 | 0.0 | 0.00 | 0.00 | 0.00 | 74 | 1016.5 |
| 20260505070734 | 54 | 235 | 0.0 | 1.0 | 0.00 | 0.00 | 0.00 | 73 | 1016.3 |
| 20260505070230 | 55 | 239 | 0.0 | 0.0 | 0.00 | 0.00 | 0.00 | 73 | 1016.5 |
| 20260505065726 | 55 | 235 | 0.0 | 0.0 | 0.00 | 0.00 | 0.00 | 72 | 1016.4 |
| 20260505065223 | 57 | 233 | 0.0 | 0.0 | 0.00 | 0.00 | 0.00 | 70 | 1016.5 |
| 20260505064720 | 57 | 215 | 0.0 | 0.0 | 0.00 | 0.00 | 0.00 | 67 | 1016.5 |
| 20260505064218 | 57 | 194 | 0.0 | 0.0 | 0.00 | 0.00 | 0.00 | 66 | 1016.4 |
| 20260505063715 | 57 | 200 | 0.0 | 1.0 | 0.00 | 0.00 | 0.00 | 65 | 1016.4 |
| 20260505063211 | 58 | 221 | 0.0 | 0.0 | 0.00 | 0.00 | 0.00 | 64 | 1016.6 |
| 20260505062707 | 58 | 219 | 0.0 | 0.0 | 0.00 | 0.00 | 0.00 | 64 | 1016.5 |
| 20260505062206 | 59 | 236 | 0.0 | 1.0 | 0.00 | 0.00 | 0.00 | 64 | 1016.8 |
| 20260505061702 | 59 | 237 | 0.0 | 0.0 | 0.00 | 0.00 | 0.00 | 63 | 1016.6 |
| 20260505061200 | 59 | 214 | 1.0 | 1.0 | 0.00 | 0.00 | 0.00 | 63 | 1016.7 |
| 20260505060657 | 59 | 227 | 0.0 | 0.0 | 0.00 | 0.00 | 0.00 | 63 | 1016.8 |
| 20260505060154 | 59 | 212 | 1.0 | 1.0 | 0.00 | 0.00 | 0.00 | 63 | 1016.7 |
| 20260505055649 | 59 | 245 | 0.0 | 0.0 | 0.00 | 0.00 | 0.00 | 63 | 1017.0 |
| 20260505055146 | 59 | 233 | 0.0 | 1.0 | 0.00 | 0.00 | 0.00 | 62 | 1016.8 |
| 20260505054643 | 60 | 239 | 0.0 | 1.0 | 0.00 | 0.00 | 0.00 | 61 | 1016.8 |
| 20260505054141 | 60 | 232 | 0.0 | 2.0 | 0.00 | 0.00 | 0.00 | 61 | 1016.7 |
| 20260505053639 | 60 | 214 | 1.0 | 2.0 | 0.00 | 0.00 | 0.00 | 61 | 1016.9 |
| 20260505053134 | 59 | 214 | 0.0 | 0.0 | 0.00 | 0.00 | 0.00 | 62 | 1016.8 |
| 20260505052632 | 59 | 231 | 0.0 | 2.0 | 0.00 | 0.00 | 0.00 | 62 | 1016.8 |
| 20260505052129 | 60 | 220 | 1.0 | 1.0 | 0.00 | 0.00 | 0.00 | 61 | 1016.8 |
| 20260505051626 | 59 | 218 | 0.0 | 2.0 | 0.00 | 0.00 | 0.00 | 61 | 1016.7 |